Terminal Aerodrome Forecast
Issued by NWS Wilmington, OH

Current Version | Previous Version | Graphics & Text | Print | Product List | Glossary On
Versions: 1 2 3 4 5 6 7 8 9 10 11 12 13 14 15 16 17 18 19 20 21 22 23 24 25 26 27 28 29 30 31 32 33 34
000
FTUS41 KILN 272300
TAFDAY
TAF
KDAY 272324Z 2800/2824 34005KT P6SM SKC
     FM281300 12005KT P6SM SCT250
     FM281800 14008KT P6SM BKN250=

USA.gov is the U.S. government's official web portal to all federal, state and local government web resources and services.